[[{"header":{"parameterUnit":"m.s-1","parameterCategory":1,"la1":30.2991,"la2":30.254,"lo1":-89.0895,"lo2":-89.0444,"dy":0.0017,"dx":0.0017,"nx":28,"ny":28,"refTime":"2023-11-15T09:00:00:Z","depth":0,"parameterNumber":2,"parameterNumberName":"U-component_of_WINDS"},"data":[0,0,0,0,0,0,0,0,0,0,0,0,0,0,0,0,0,0,0,0,0,0,0,0,0,0,0,0,0,0,0,0,0,0,0,0,0,0,0,0,0,0,0,0,0,0,0,0,0,0,0,0,0,0,0,0,0,0,-5.1822,-5.1823,0,-5.1915,-5.1916,-5.1917,-5.1808,-5.1804,-5.18,-5.1797,-5.1896,-5.1902,-5.1909,0,0,0,0,0,0,0,0,0,0,0,0,0,-5.1555,-5.1561,-5.1822,-5.1823,-5.1824,-5.1914,-5.1916,-5.1917,-5.1809,-5.1804,-5.1799,-5.1795,-5.1894,-5.1902,-5.1909,0,0,0,0,0,0,0,0,0,0,0,0,0,-5.1662,-5.1562,-5.1821,-5.1781,-5.1778,-5.1914,-5.1916,-5.1917,-5.181,-5.1804,-5.1798,-5.1792,-5.1891,-5.1901,-5.191,-5.2092,0,0,-5.194,-5.1944,0,0,0,0,0,0,0,0,-5.1656,-5.1672,-5.1786,-5.1784,-5.1781,-5.1844,-5.1858,-5.1976,-5.1812,-5.1798,-5.1796,-5.1789,-5.1884,-5.1894,-5.1925,-5.2097,-5.2101,-5.1941,-5.1947,-5.1951,-5.1954,0,0,0,0,0,0,0,-5.1649,-5.1667,-5.1858,-5.1788,-5.1785,-5.176,-5.1768,-5.188,-5.1874,-5.1799,-5.1791,-5.1804,-5.1881,-5.1916,-5.1926,-5.2102,-5.194,-5.1949,-5.1955,-5.1959,-5.243,-5.2437,0,0,0,0,0,0,-5.1645,-5.1662,-5.1856,-5.1861,-5.1702,-5.1769,-5.1779,-5.183,-5.1873,-5.1873,-5.1809,-5.1798,-5.1902,-5.1915,-5.1929,-5.2146,-5.1951,-5.196,-5.1965,-5.2424,-5.2432,-5.2439,0,0,0,0,0,0,-5.164,-5.1664,-5.1852,-5.176,-5.1781,-5.178,-5.1839,-5.1835,-5.1869,-5.188,-5.1879,-5.1844,-5.1898,-5.1916,-5.2053,-5.2148,-5.1964,-5.1973,-5.2416,-5.2426,-5.2435,-5.2581,0,0,0,0,0,0,-5.1633,-5.1662,-5.173,-5.1762,-5.1787,-5.1973,-5.1844,-5.1841,-5.1885,-5.1873,-5.1913,-5.1914,-5.1894,-5.2039,-5.2062,-5.2158,-5.198,-5.2407,-5.242,-5.2432,-5.2568,-5.2595,-5.2618,0,0,0,0,0,-5.1624,-5.1768,-5.1734,-5.1758,-5.1872,-5.1978,-5.1993,-5.1966,-5.1893,-5.1963,-5.197,-5.1913,-5.2134,-5.2054,-5.2079,-5.218,-5.2401,-5.2417,-5.2431,-5.2557,-5.259,-5.2618,0,0,0,0,0,0,-5.1749,-5.1772,-5.1734,-5.1893,-5.1934,-5.196,-5.2046,-5.2001,-5.2065,-5.2051,-5.2016,-5.2026,-5.2172,-5.2189,-5.21,-5.2359,-5.2256,-5.2277,-5.2342,-5.2374,-5.2399,-5.2392,-5.1988,0,0,0,0,0,-5.1795,-5.1878,-5.1894,-5.2033,-5.2055,-5.2047,-5.2093,-5.2068,-5.2111,-5.2128,-5.2145,-5.219,-5.2269,-5.2322,-5.2395,-5.2569,-5.2578,-5.2651,-5.2676,-5.2697,-5.2716,-5.2812,-5.2845,-5.2489,-5.2489,-5.2488,0,0,-5.1891,-5.1914,-5.1969,-5.2058,-5.2087,-5.2177,-5.2063,-5.2161,-5.2227,-5.2143,-5.2273,-5.2288,-5.2335,-5.2492,-5.2562,-5.2511,-5.2816,-5.2716,-5.2733,-5.2741,-5.2831,-5.2865,-5.2895,-5.2499,-5.2497,-5.2496,0,0,-5.2112,-5.2137,-5.2256,-5.2287,-5.2333,-5.2327,-5.2355,-5.2388,-5.2394,-5.2524,-5.2463,-5.2542,-5.2679,-5.2716,-5.2752,-5.2988,-5.2939,-5.3013,-5.3146,-5.3239,-5.3267,-5.3292,-5.3379,-5.341,-5.3032,-5.3032,-5.3033,0,-5.2226,-5.2356,-5.2323,-5.2426,-5.2468,-5.2395,-5.2516,-5.2549,-5.2617,-5.2649,-5.259,-5.2761,-5.2788,-5.2953,-5.3011,-5.3042,-5.3076,-5.3009,-5.3266,-5.329,-5.3313,-5.3395,-5.3427,-5.3041,-5.304,-5.3039,-5.3038,0,-5.2496,-5.2587,-5.2678,-5.2744,-5.2796,-5.2908,-5.2893,-5.2951,-5.2922,-5.2923,-5.3057,-5.3087,-5.3166,-5.3203,-5.3176,-5.3365,-5.3333,-5.3271,-5.3167,-5.3356,-5.3433,-5.3464,-5.3054,-5.3051,-5.3048,-5.3046,0,0,-5.2799,-5.2845,-5.2879,-5.2909,-5.2955,-5.3025,-5.3135,-5.3211,-5.3262,-5.3311,-5.3403,-5.3521,-5.3465,-5.3507,-5.3483,-5.3565,-5.3753,-5.3493,-5.3494,-5.3542,-5.3966,-5.4014,-5.4051,-5.372,-5.3726,-5.3731,-5.3963,0,-5.3021,-5.3209,-5.3183,-5.3365,-5.345,-5.3382,-5.3478,-5.3517,-5.3521,-5.3595,-5.3599,-5.3684,-5.3602,-5.3627,-5.3705,-5.3714,-5.3838,-5.3696,-5.3808,-5.3813,-5.38,-5.409,-5.4141,-5.4359,-5.3993,-5.3998,-5.4001,0,-5.3307,-5.3366,-5.3556,-5.3589,-5.3624,-5.371,-5.3779,-5.385,-5.3894,-5.3891,-5.3938,-5.3901,-5.4012,-5.3905,-5.406,-5.3964,-5.4009,-5.402,-5.4028,-5.4039,-5.392,-5.4111,-5.4427,-5.4461,-5.4048,-5.4044,-5.4041,0,-5.3511,-5.3638,-5.3769,-5.3797,-5.3838,-5.3901,-5.3921,-5.3959,-5.4007,-5.4067,-5.4098,-5.4171,-5.4212,-5.4271,-5.4255,-5.4178,-5.4415,-5.4305,-5.4417,-5.4418,-5.4472,-5.4469,-5.4802,-5.4497,-5.4497,-5.4496,-5.4495,0,-5.3764,-5.3884,-5.3862,-5.3942,-5.4075,-5.4044,-5.4177,-5.4189,-5.4223,-5.4307,-5.4252,-5.4332,-5.4305,-5.4384,-5.4372,-5.4504,-5.4522,-5.4525,-5.4521,-5.4531,-5.4531,-5.4561,-5.4546,-5.4505,-5.4503,-5.4501,-5.45,0,-5.4015,-5.4005,-5.4143,-5.4171,-5.4181,-5.4278,-5.4303,-5.438,-5.4379,-5.4485,-5.4509,-5.4509,-5.4599,-5.4588,-5.469,-5.4682,-5.4846,-5.4822,-5.4831,-5.4827,-5.494,-5.493,-5.5305,-5.5353,-5.5016,-5.5019,-5.5022,0,-5.4178,-5.4269,-5.4306,-5.4357,-5.4382,-5.4465,-5.4514,-5.4487,-5.4541,-5.4598,-5.4669,-5.4754,-5.482,-5.4968,-5.4979,-5.5057,-5.5036,-5.5162,-5.5048,-5.5056,-5.5041,-5.5036,-5.5046,-5.5185,-5.5189,-5.5192,-5.5195,0,-5.4469,-5.446,-5.4531,-5.4602,-5.4661,-5.4716,-5.4765,-5.4811,-5.4789,-5.4852,-5.4943,-5.4995,-5.5098,-5.5184,-5.5258,-5.528,-5.5236,-5.523,-5.5261,-5.5273,-5.5275,-5.5278,-5.4895,-5.5222,-5.522,-5.5218,-5.5216,-5.5215,-5.4682,-5.476,-5.4799,-5.4881,-5.4915,-5.4963,-5.5037,-5.5046,-5.5121,-5.5202,-5.5182,-5.5285,-5.5329,-5.5422,-5.5453,-5.5535,-5.549,-5.5533,-5.5544,-5.5556,-5.5571,-5.5261,-5.5548,-5.5547,-5.5547,-5.5546,-5.5545,0,-5.4972,-5.4994,-5.5069,-5.514,-5.5205,-5.5155,-5.5207,-5.5266,-5.5357,-5.54,-5.5467,-5.5573,-5.5657,-5.5674,-5.5754,-5.5817,-5.5799,-5.5839,-5.5835,-5.5842,-5.5606,-5.5572,-5.5853,-5.5853,-5.5853,-5.5853,-5.5852,-5.5852,-5.5131,-5.526,-5.5256,-5.5403,-5.5424,-5.5524,-5.5559,-5.5603,-5.5638,-5.5758,-5.5827,-5.5836,-5.587,-5.5953,-5.6028,-5.6031,-5.6064,-5.6114,-5.6109,-5.5889,-5.5858,-5.5829,-5.5797,-5.6121,-5.6121,-5.6339,-5.6341,-5.6342]},{"header":{"parameterUnit":"m.s-1","parameterCategory":1,"la1":30.2991,"la2":30.254,"lo1":-89.0895,"lo2":-89.0444,"dy":0.0017,"dx":0.0017,"nx":28,"ny":28,"refTime":"2023-11-15T09:00:00:Z","depth":0,"parameterNumber":3,"parameterNumberName":"V-component_of_WINDS"},"data":[0,0,0,0,0,0,0,0,0,0,0,0,0,0,0,0,0,0,0,0,0,0,0,0,0,0,0,0,0,0,0,0,0,0,0,0,0,0,0,0,0,0,0,0,0,0,0,0,0,0,0,0,0,0,0,0,0,0,-4.4418,-4.4418,0,-4.4382,-4.4382,-4.4381,-4.4278,-4.4276,-4.4274,-4.4272,-4.4237,-4.4238,-4.4239,0,0,0,0,0,0,0,0,0,0,0,0,0,-4.44,-4.4401,-4.4418,-4.4418,-4.4418,-4.4382,-4.4382,-4.4381,-4.4279,-4.4276,-4.4273,-4.427,-4.4236,-4.4238,-4.4239,0,0,0,0,0,0,0,0,0,0,0,0,0,-4.439,-4.4401,-4.4419,-4.4362,-4.4356,-4.4382,-4.4382,-4.4381,-4.4279,-4.4276,-4.4272,-4.4269,-4.4236,-4.4238,-4.4239,-4.4318,0,0,-4.4245,-4.4245,0,0,0,0,0,0,0,0,-4.4391,-4.4391,-4.4371,-4.4366,-4.436,-4.4331,-4.4362,-4.436,-4.428,-4.4309,-4.4271,-4.4268,-4.4271,-4.427,-4.427,-4.4316,-4.4315,-4.4245,-4.4246,-4.4247,-4.4247,0,0,0,0,0,0,0,-4.4392,-4.4392,-4.4404,-4.4371,-4.4364,-4.4339,-4.4334,-4.4361,-4.4309,-4.4306,-4.4298,-4.4295,-4.4267,-4.4269,-4.4269,-4.4314,-4.4245,-4.4246,-4.4247,-4.4248,-4.4422,-4.4425,0,0,0,0,0,0,-4.44,-4.4393,-4.4405,-4.4403,-4.4367,-4.4342,-4.4336,-4.4344,-4.4309,-4.43,-4.4298,-4.4291,-4.4268,-4.4267,-4.4267,-4.4356,-4.4247,-4.4248,-4.4249,-4.4418,-4.4422,-4.4426,0,0,0,0,0,0,-4.44,-4.4402,-4.4407,-4.4396,-4.4395,-4.4346,-4.4355,-4.4345,-4.4346,-4.4303,-4.4293,-4.4309,-4.4265,-4.4265,-4.4306,-4.4354,-4.4249,-4.4251,-4.4414,-4.4419,-4.4424,-4.4536,0,0,0,0,0,0,-4.44,-4.4403,-4.4432,-4.4397,-4.4396,-4.4446,-4.4358,-4.4347,-4.4349,-4.4339,-4.4311,-4.4303,-4.4262,-4.4304,-4.4307,-4.4354,-4.4252,-4.4409,-4.4416,-4.4423,-4.4527,-4.4544,-4.4558,0,0,0,0,0,-4.44,-4.4466,-4.4434,-4.4436,-4.4431,-4.4449,-4.4448,-4.4399,-4.4354,-4.4383,-4.4354,-4.4304,-4.4348,-4.4309,-4.4312,-4.436,-4.4406,-4.4414,-4.4422,-4.4521,-4.4541,-4.4558,0,0,0,0,0,0,-4.4508,-4.446,-4.4425,-4.4481,-4.447,-4.4431,-4.4466,-4.4422,-4.4424,-4.4415,-4.4355,-4.4349,-4.4399,-4.4383,-4.4341,-4.4434,-4.4368,-4.4378,-4.4442,-4.4461,-4.4476,-4.4479,-4.4254,0,0,0,0,0,-4.4539,-4.4556,-4.4513,-4.4567,-4.4563,-4.4516,-4.4522,-4.4485,-4.4472,-4.4467,-4.4441,-4.4431,-4.4441,-4.445,-4.4458,-4.4524,-4.4517,-4.4559,-4.4575,-4.4587,-4.4596,-4.463,-4.4648,-4.4452,-4.4452,-4.4452,0,0,-4.4602,-4.4578,-4.4593,-4.4589,-4.4575,-4.4596,-4.4513,-4.4538,-4.4552,-4.447,-4.4507,-4.4489,-4.4472,-4.4526,-4.4549,-4.4515,-4.4648,-4.4598,-4.4608,-4.461,-4.464,-4.4658,-4.4675,-4.4458,-4.4457,-4.4456,0,0,-4.4727,-4.4711,-4.4753,-4.4741,-4.4722,-4.469,-4.47,-4.4668,-4.4653,-4.4688,-4.4627,-4.4644,-4.4664,-4.4655,-4.4653,-4.4774,-4.4727,-4.4778,-4.4859,-4.4892,-4.4908,-4.4921,-4.4964,-4.4981,-4.4787,-4.4787,-4.4787,0,-4.4808,-4.4836,-4.4781,-4.481,-4.481,-4.4735,-4.4778,-4.4769,-4.4755,-4.4756,-4.4718,-4.4742,-4.4726,-4.4776,-4.4806,-4.4807,-4.4817,-4.4781,-4.491,-4.4923,-4.4934,-4.4975,-4.4991,-4.4793,-4.4793,-4.4792,-4.4791,0,-4.4936,-4.4956,-4.4993,-4.4979,-4.4983,-4.5019,-4.497,-4.4981,-4.4944,-4.4916,-4.4953,-4.4931,-4.4933,-4.4942,-4.4906,-4.4987,-4.4967,-4.4921,-4.4854,-4.496,-4.4997,-4.5013,-4.4802,-4.48,-4.4798,-4.4797,0,0,-4.513,-4.5084,-4.5099,-4.5091,-4.5064,-4.5079,-4.5111,-4.5112,-4.5122,-4.5114,-4.514,-4.5158,-4.5115,-4.5113,-4.5075,-4.5105,-4.5202,-4.5054,-4.5053,-4.5083,-4.5289,-4.5325,-4.5344,-4.517,-4.5173,-4.5175,-4.5291,0,-4.5249,-4.53,-4.5252,-4.5314,-4.5331,-4.526,-4.5288,-4.5275,-4.5249,-4.5261,-4.5233,-4.5247,-4.5188,-4.5187,-4.5212,-4.5184,-4.5242,-4.5175,-4.5194,-4.5196,-4.5201,-4.5363,-4.5401,-4.5511,-4.5305,-4.5307,-4.5309,0,-4.5394,-4.5391,-4.5455,-4.5422,-4.5428,-4.5454,-4.545,-4.5462,-4.5445,-4.5425,-4.5422,-4.5376,-4.5406,-4.534,-4.538,-4.5336,-4.5341,-4.5328,-4.5331,-4.5331,-4.5259,-4.5368,-4.5545,-4.5562,-4.5331,-4.533,-4.5328,0,-4.5529,-4.5541,-4.558,-4.5576,-4.554,-4.556,-4.5545,-4.5525,-4.5528,-4.5525,-4.5527,-4.5528,-4.5529,-4.5531,-4.5487,-4.5443,-4.5533,-4.5463,-4.5517,-4.5519,-4.554,-4.5539,-4.5721,-4.5543,-4.5542,-4.5542,-4.5542,0,-4.5667,-4.5709,-4.5641,-4.5665,-4.5709,-4.5653,-4.5698,-4.5677,-4.5659,-4.5678,-4.5617,-4.5637,-4.5576,-4.559,-4.5555,-4.5594,-4.5595,-4.5579,-4.557,-4.5585,-4.5587,-4.5588,-4.5579,-4.5546,-4.5545,-4.5544,-4.5544,0,-4.5826,-4.5782,-4.582,-4.5781,-4.5773,-4.5807,-4.5775,-4.5796,-4.5766,-4.5791,-4.5793,-4.5747,-4.5759,-4.5714,-4.572,-4.5696,-4.5754,-4.5731,-4.5759,-4.5753,-4.5809,-4.5804,-4.5998,-4.602,-4.5827,-4.5829,-4.5831,0,-4.5917,-4.5947,-4.5911,-4.5919,-4.5908,-4.5922,-4.5924,-4.587,-4.5875,-4.5858,-4.5881,-4.5888,-4.5891,-4.5914,-4.5881,-4.5884,-4.5862,-4.5929,-4.5862,-4.5876,-4.5863,-4.5862,-4.5865,-4.5944,-4.5946,-4.5948,-4.5949,0,-4.6083,-4.606,-4.6065,-4.6064,-4.6068,-4.6065,-4.6057,-4.6067,-4.6008,-4.6017,-4.6028,-4.6031,-4.6035,-4.6043,-4.6039,-4.6025,-4.5978,-4.5971,-4.5983,-4.6,-4.6015,-4.6008,-4.5798,-4.5967,-4.5965,-4.5964,-4.5963,-4.5962,-4.6211,-4.6234,-4.6213,-4.6221,-4.6209,-4.6203,-4.622,-4.6192,-4.62,-4.6199,-4.6166,-4.6184,-4.6166,-4.6156,-4.6146,-4.616,-4.6128,-4.6147,-4.6151,-4.6157,-4.6167,-4.6012,-4.6159,-4.6158,-4.6158,-4.6157,-4.6157,0,-4.6375,-4.6357,-4.6365,-4.6355,-4.6362,-4.6315,-4.6304,-4.6313,-4.6329,-4.6315,-4.6319,-4.6331,-4.6339,-4.6306,-4.6308,-4.6326,-4.6304,-4.6328,-4.6327,-4.6324,-4.6195,-4.6183,-4.6345,-4.6345,-4.6345,-4.6345,-4.6345,-4.6345,-4.646,-4.6497,-4.6471,-4.6501,-4.6483,-4.6499,-4.6496,-4.649,-4.6479,-4.6496,-4.6501,-4.6479,-4.6458,-4.6458,-4.6463,-4.6453,-4.6457,-4.6489,-4.6472,-4.6352,-4.6333,-4.6316,-4.6305,-4.649,-4.649,-4.66,-4.6601,-4.6602]}]]